Location: Newark
(53.3469°N, 7.1606°E)
Time: 06:11:53
(UTC+00:00)

N. Korean satellite - Pass Details

Date: 14 November 2019
Orbit: 456 x 506 km, 97.2° (Epoch: 07 December)

Event Time Altitude Azimuth Distance (km) Brightness Sun altitude
Rises 05:05:07 0° 19° (NNE) 2,626 10.4 -16.0°
Reaches altitude 10° 05:07:20 10° 27° (NNE) 1,736 9.6 -15.7°
Maximum altitude 05:10:52 39° 97° (E) 774 8.2 -15.2°
Drops below altitude 10° 05:14:21 10° 168° (SSE) 1,713 9.6 -14.7°
Sets 05:16:31 0° 176° (S) 2,587 10.5 -14.4°
